This demonstration page uses our WeatherBlox Daily Observations layout. Learn more.

Left ArrowRight Arrow

31.84235, -102.49876

Hourly Observations for March 30, 2022

Temp ( °F °C ) Dew Point ( °F °C ) Humidity (%) Winds ( mph kmh ) Pressure ( in mb ) Visibility ( mi km ) Precip ( " mm )
12:53 am 00:53 Partly Cloudy 64 17.8 25 -3.9 23 23 W 20 31 29.53 1000 10 16 0.00 0.00
1:53 am 01:53 Clear 62 16.7 25 -3.9 24 24 W 24 39 29.53 1000 10 16 0.00 0.00
2:53 am 02:53 Clear 59 15 28 -2.2 31 31 W 20 31 29.54 1001 10 16 0.00 0.00
3:53 am 03:53 Clear 57 13.9 27 -2.8 32 32 W 14 22 29.53 1000 10 16 0.00 0.00
4:53 am 04:53 Clear 54 12.2 27 -2.8 35 35 W 14 22 29.53 1000 10 16 0.00 0.00
5:53 am 05:53 Clear 54 12.2 30 -1.1 40 40 W 17 28 29.54 1000 10 16 0.00 0.00
6:53 am 06:53 Mostly Cloudy 54 12.2 30 -1.1 40 40 W 15 24 29.56 1001 10 16 0.00 0.00
7:53 am 07:53 Sunny 51 10.6 30 -1.1 44 44 W 14 22 29.60 1002 10 16 0.00 0.00
8:53 am 08:53 Sunny 54 12.2 32 0 43 43 W 22 35 29.65 1004 10 16 0.00 0.00
9:53 am 09:53 Hazy 55 12.8 34 1.1 45 45 N 22 35 29.69 1005 4 6 0.00 0.00
10:02 am 10:02 Mostly Cloudy with Haze 55 12.8 35 1.7 47 47 N 20 31 29.76 1008 3 5 0.00 0.00
10:53 am 10:53 Mostly Cloudy with Haze 53 11.7 33 0.6 47 47 N 22 35 29.75 1008 5 8 0.00 0.00
11:53 am 11:53 Cloudy 53 11.7 33 0.6 47 47 N 18 30 29.79 1009 9 14 0.00 0.00
12:53 pm 12:53 Mostly Sunny 58 14.4 34 1.1 41 41 NNW 15 24 29.78 1009 10 16 0.00 0.00
1:53 pm 13:53 Sunny 61 16.1 32 0 34 34 N 13 20 29.76 1008 10 16 0.00 0.00
2:53 pm 14:53 Sunny 63 17.2 31 -0.6 30 30 WNW 14 22 29.73 1007 10 16 0.00 0.00
3:53 pm 15:53 Mostly Sunny 65 18.3 31 -0.6 28 28 NNW 9 15 29.70 1006 10 16 0.00 0.00
4:53 pm 16:53 Partly Cloudy 66 18.9 32 0 28 28 W 9 15 29.68 1005 10 16 0.00 0.00
5:53 pm 17:53 Partly Cloudy 64 17.8 32 0 30 30 SW 8 13 29.67 1005 10 16 0.00 0.00
6:53 pm 18:53 Partly Cloudy 66 18.9 32 0 28 28 Calm 29.65 1004 10 16 0.00 0.00
7:53 pm 19:53 Sunny 65 18.3 31 -0.6 28 28 Calm 29.64 1004 10 16 0.00 0.00
8:53 pm 20:53 Mostly Clear 61 16.1 30 -1.1 31 31 SE 8 13 29.65 1004 10 16 0.00 0.00
9:53 pm 21:53 Cloudy 61 16.1 31 -0.6 32 32 E 8 13 29.66 1005 10 16 0.00 0.00
10:53 pm 22:53 Cloudy 58 14.4 40 4.4 51 51 NNE 14 22 29.74 1007 9 14 0.00 0.00
11:53 pm 23:53 Partly Cloudy 50 10 46 7.8 86 86 E 15 24 29.72 1007 10 16 0.00 0.00

Powered by AerisWeather